#timestamp,LO_Frequency,Hit,StdDev 
1510567215.1,286047006.2,P
1510567235.8,286047008.8,Y
1510567255.7,286047003.4,P
1510567275.5,286047002.4,N
1510567295.3,286047000.4,N
1510567315.2,286046998.1,N
1510567335.9,286047002.8,N
1510567355.7,286047000.9,N
1510567375.6,286047003.9,N
1510567395.4,286047003.4,N
1510567415.2,286047003.8,N
1510567435.0,286047001.5,N
1510567436.0,286047001.5,N
1510567455.8,286047004.3,N
1510567475.6,286046999.6,N
1510567495.4,286046997.1,N
1510567515.3,286046995.2,N
1510567535.1,286046999.0,N
1510567555.8,286046999.8,N
1510567575.7,286047000.9,N
1510567595.5,286046999.1,N
1510567615.3,286046997.9,N
1510567635.2,286046999.1,N
1510567655.9,286046999.4,N
1510567675.7,286047001.2,N
1510567695.6,286046997.2,N
1510567715.4,286046996.4,N
1510567735.2,286046996.1,N
1510567755.0,286046995.9,N
1510567755.9,286046995.9,N
1510567775.8,286046990.2,Y
1510567795.6,286046990.1,P
1510567815.5,286046990.3,N
1510567835.3,286046989.3,N
1510567855.1,286046989.1,N
1510567875.9,286046987.3,Y
1510567895.7,286046993.6,P
1510567915.5,286046992.2,P
1510567935.3,286046991.7,P
1510567955.2,286046994.6,Y
1510567975.0,286047000.9,P
1510567975.9,286047000.9,N
1510567995.8,286047002.6,N
1510568015.6,286046998.9,N
1510568035.4,286046997.4,N
1510568055.2,286046997.6,N
1510568075.1,286046996.1,N
1510568076.0,286046996.1,N
1510568095.8,286046997.1,N
1510568115.6,286046995.4,N
1510568135.5,286046995.0,N
1510568155.3,286046996.1,N
1510568175.1,286046991.8,Y
1510568195.9,286046995.0,P
1510568215.7,286046997.1,N
1510568235.5,286046996.7,P
1510568255.4,286046997.5,N
1510568275.2,286046997.3,N
1510568295.0,286046996.5,Y
1510568295.9,286046996.5,P
1510568315.8,286047002.6,P
1510568335.6,286046998.2,N
1510568355.4,286046998.2,N
1510568375.3,286047002.6,N
1510568395.1,286047000.0,N
1510568396.0,286047000.0,N
1510568415.8,286047004.3,N
1510568435.7,286047001.7,N
1510568455.5,286047001.5,N
1510568475.3,286047004.4,N
1510568495.1,286046999.8,N
1510568515.9,286047001.0,N
1510568535.7,286046998.4,N
1510568555.5,286046997.1,N
1510568575.4,286046997.7,N
1510568595.2,286046999.2,N
1510568615.0,286046998.3,N
1510568615.9,286046998.3,N
1510568635.8,286046994.9,N
1510568655.6,286046996.3,N
1510568675.4,286046996.0,N
1510568695.3,286046991.7,Y
1510568715.1,286046994.0,P
1510568735.8,286046995.6,N
1510568755.7,286046995.4,N
1510568775.5,286046994.4,N
1510568795.3,286046996.2,N
1510568815.2,286046995.4,N
1510568835.9,286046995.1,Y
1510568855.7,286046998.0,P
1510568875.6,286046997.4,N
1510568895.4,286046996.3,P
1510568915.2,286046993.4,Y
1510568935.1,286046997.0,P
1510568936.0,286046997.0,P
1510568955.8,286046999.3,P
1510568975.6,286046996.0,Y
1510568995.5,286046999.4,P
1510569015.3,286046997.0,P
1510569035.1,286046995.0,P
1510569055.9,286046996.1,N
1510569075.7,286046996.8,N
1510569095.5,286046997.6,N
1510569115.3,286046999.6,N
1510569135.2,286046996.0,N
1510569155.0,286046996.4,N
1510569155.9,286046996.4,N
1510569175.8,286046993.3,Y
1510569195.6,286046998.0,P
1510569215.4,286046995.6,P
1510569235.2,286046997.0,P
1510569255.1,286046998.9,N
1510569256.0,286046998.9,N
1510569275.8,286046994.9,Y
1510569295.7,286046999.4,P
1510569315.5,286046997.8,N
1510569335.3,286046996.5,P
1510569355.2,286046996.4,Y
1510569375.9,286046997.0,P
1510569395.7,286046999.0,N
1510569415.5,286046998.1,N
1510569435.4,286047000.7,N
1510569455.2,286046999.0,N
1510569475.0,286047002.8,N
1510569475.9,286047002.8,N
1510569495.8,286046998.4,N
1510569515.6,286047000.1,N
1510569535.4,286047001.8,N
1510569555.3,286047002.4,N
1510569575.1,286046999.3,N
1510569576.0,286046999.3,N
1510569595.8,286046997.0,N
1510569615.7,286046999.5,N
1510569635.5,286046998.3,N
1510569655.3,286046997.1,N
1510569675.2,286046993.5,Y
1510569695.9,286046995.0,P
1510569715.7,286046996.1,N
1510569735.6,286046994.0,P
1510569755.4,286046994.2,N
1510569775.2,286046994.5,N
1510569795.1,286046995.2,N
1510569796.0,286046995.2,N
1510569815.8,286046996.3,N
1510569835.6,286046994.8,Y
1510569855.5,286046996.8,P
1510569875.3,286046996.3,P
1510569895.1,286046993.6,P
1510569915.9,286046994.8,Y
1510569935.7,286046999.0,P
1510569955.5,286047004.3,N
1510569975.4,286047001.7,N
1510569995.2,286047001.2,N
1510570015.0,286046998.6,N
1510570015.9,286046998.6,N
1510570035.7,286047000.3,N
1510570055.6,286046996.5,N
1510570075.4,286046997.4,N
1510570095.2,286046995.1,N
1510570115.1,286046993.7,N
1510570116.0,286046993.7,N
1510570135.8,286046994.3,N
1510570155.6,286046994.0,N
1510570175.5,286046993.7,N
1510570195.3,286046995.8,N
1510570215.1,286046996.4,N
1510570235.9,286046995.1,N
1510570255.7,286046993.4,N
1510570275.5,286046994.0,N
1510570295.3,286046992.6,N
1510570315.2,286046992.9,N
1510570335.0,286046993.5,N
1510570335.9,286046993.5,N
1510570355.7,286046997.4,N
1510570375.6,286046999.0,N
1510570395.4,286046996.9,N
1510570415.2,286046997.1,N
1510570435.1,286047001.0,N
1510570436.0,286047001.0,N
1510570455.8,286047002.0,N
1510570475.6,286047003.8,N
1510570495.5,286047002.8,N
1510570515.3,286047001.5,N
1510570535.1,286047000.0,N
1510570555.9,286047001.0,N
1510570575.7,286047001.0,N
1510570595.5,286047000.8,N
1510570615.4,286046999.3,N
1510570635.2,286046997.2,N
1510570655.0,286046996.2,N
1510570655.9,286046996.2,N
1510570675.7,286046995.8,N
1510570695.6,286046997.8,N
1510570715.4,286046995.4,N
1510570735.2,286046993.8,N
1510570755.1,286046997.6,N
1510570756.0,286046997.6,N
1510570775.8,286046995.2,N
1510570795.6,286046993.7,N
